W4TTU-1 Weather Reports


Display with metric or nautical units.
time (UTC)temp
F
wind
direction
speed
MPH
gust
MPH
rain 1hr
in
rain 24hr
in
rain mn
in
humidity
%
barometer
mb
20221207104759 29 220 6.0 12.0 0.00 0.00 0.04 53 846.1
20221207101758 29 247 7.0 12.0 0.00 0.00 0.04 53 846.3
20221207100257 29 265 10.0 11.0 0.00 0.00 0.04 52 846.5
20221207094758 30 281 4.0 9.0 0.00 0.00 0.04 52 846.4
20221207093256 30 235 2.0 7.0 0.00 0.00 0.04 52 846.4
20221207091756 30 270 1.0 7.0 0.00 0.00 0.04 52 846.3
20221207090255 30 260 15.0 15.0 0.00 0.00 0.04 52 846.1
20221207084755 30 243 3.0 13.0 0.00 0.00 0.04 52 845.8
20221207083254 30 288 9.0 16.0 0.00 0.00 0.04 52 845.6
20221207081753 31 249 13.0 16.0 0.00 0.00 0.04 52 845.5
20221207080255 31 260 7.0 13.0 0.00 0.00 0.04 52 845.3
20221207074752 31 247 12.0 14.0 0.00 0.00 0.04 52 845.3
20221207073254 31 272 9.0 14.0 0.00 0.00 0.04 52 845.1
20221207070251 31 236 7.0 12.0 0.00 0.00 0.04 50 845.1
20221207064751 31 210 2.0 8.0 0.00 0.00 0.04 51 844.8
20221207063250 31 243 7.0 10.0 0.00 0.00 0.04 51 844.5
20221207061750 32 286 6.0 15.0 0.00 0.00 0.04 51 844.1
20221207060249 32 275 9.0 11.0 0.00 0.00 0.04 51 843.9
20221207054748 32 234 6.0 10.0 0.00 0.00 0.04 50 843.9
20221207053249 32 315 7.0 13.0 0.00 0.00 0.04 50 843.9
20221207051748 32 288 6.0 14.0 0.00 0.00 0.04 50 843.8
20221207043245 32 261 15.0 24.0 0.00 0.00 0.04 50 842.9
20221207041745 33 261 4.0 24.0 0.00 0.00 0.04 49 842.7
20221207040244 33 240 15.0 23.0 0.00 0.00 0.04 49 842.3
20221207034744 33 247 21.0 29.0 0.00 0.00 0.04 50 842.3
20221207033243 33 240 9.0 18.0 0.00 0.00 0.01 49 842.0
20221207031743 33 261 17.0 17.0 0.00 0.00 0.01 49 842.1
20221207030242 34 270 12.0 22.0 0.00 0.00 0.00 49 841.7
20221207024742 34 274 21.0 21.0 0.00 0.00 0.00 48 841.8
20221207023241 34 331 8.0 12.0 0.00 0.00 0.00 48 841.7
20221207021741 35 238 9.0 17.0 0.00 0.00 0.00 48 842.1
20221207020240 35 229 22.0 22.0 0.00 0.00 0.00 48 842.4
20221207014740 35 250 14.0 16.0 0.00 0.00 0.00 48 842.0
20221207013239 36 263 6.0 14.0 0.00 0.00 0.00 47 841.4
20221207011739 36 236 6.0 28.0 0.00 0.00 0.00 47 841.4
20221207010238 37 220 8.0 30.0 0.00 0.00 0.00 47 841.3
20221207004738 38 279 14.0 24.0 0.00 0.00 0.00 46 840.9
20221207003237 39 249 17.0 27.0 0.00 0.00 0.00 46 840.8
20221207001738 40 256 9.0 17.0 0.00 0.00 0.00 45 840.7
20221207000236 41 256 5.0 16.0 0.00 0.00 0.00 45 840.8
20221206234737 42 247 15.0 15.0 0.00 0.00 0.00 45 841.0
20221206233235 44 227 6.0 12.0 0.00 0.00 0.00 45 840.8
20221206231737 45 182 1.0 8.0 0.00 0.00 0.00 45 840.7
20221206224736 46 229 1.0 9.0 0.00 0.00 0.00 46 840.4
20221206223233 47 222 4.0 8.0 0.00 0.00 0.00 46 840.4
20221206221733 47 292 3.0 9.0 0.00 0.00 0.00 46 840.2
20221206220232 47 258 6.0 15.0 0.00 0.00 0.00 47 840.2
20221206214731 46 230 4.0 16.0 0.00 0.00 0.00 47 839.8
20221206211730 45 256 9.0 14.0 0.00 0.00 0.00 48 840.1
20221206210230 45 261 12.0 16.0 0.00 0.00 0.00 48 840.1
20221206204729 44 238 11.0 14.0 0.00 0.00 0.00 49 840.1
20221206203229 42 252 7.0 16.0 0.00 0.00 0.00 50 840.2
20221206201728 40 270 7.0 17.0 0.00 0.00 0.00 50 840.1
20221206200228 40 225 12.0 15.0 0.00 0.00 0.00 49 840.2
20221206194727 40 263 9.0 18.0 0.00 0.00 0.00 49 840.1
20221206193226 40 247 13.0 17.0 0.00 0.00 0.00 48 839.9
20221206184727 41 258 11.0 18.0 0.00 0.00 0.00 49 840.3
20221206183224 42 261 6.0 18.0 0.00 0.00 0.00 50 840.2
20221206174723 39 243 13.0 18.0 0.00 0.00 0.00 52 840.3
20221206173222 38 265 6.0 14.0 0.00 0.00 0.00 53 840.3
20221206171722 36 261 7.0 14.0 0.00 0.00 0.00 53 840.5
20221206170221 35 247 13.0 14.0 0.00 0.00 0.00 54 840.6
20221206164721 34 270 14.0 22.0 0.00 0.00 0.00 55 840.3
20221206163220 33 270 12.0 16.0 0.00 0.00 0.00 54 840.5
20221206161720 32 238 17.0 18.0 0.00 0.00 0.00 54 840.5
20221206160219 31 272 16.0 20.0 0.00 0.00 0.00 54 840.5
20221206154719 30 292 10.0 18.0 0.00 0.00 0.00 54 840.3
20221206153218 30 252 6.0 19.0 0.00 0.00 0.00 54 840.4
20221206151718 30 231 11.0 15.0 0.00 0.00 0.00 54 840.1
20221206150217 30 254 7.0 22.0 0.00 0.00 0.00 54 840.0
20221206144716 30 234 7.0 15.0 0.00 0.00 0.00 53 840.0
20221206143216 30 265 13.0 14.0 0.00 0.00 0.00 53 839.9
20221206141716 29 238 11.0 14.0 0.00 0.00 0.00 54 840.2
20221206140215 29 252 13.0 15.0 0.00 0.00 0.00 54 840.0
20221206134714 29 250 17.0 17.0 0.00 0.00 0.00 53 839.9
20221206133214 29 265 17.0 19.0 0.00 0.00 0.00 52 839.7
20221206131713 30 267 6.0 10.0 0.00 0.00 0.00 53 839.8
20221206130214 30 283 6.0 14.0 0.00 0.00 0.00 53 839.7
20221206124712 30 261 6.0 10.0 0.00 0.00 0.00 52 839.6
20221206123212 30 297 1.0 7.0 0.00 0.00 0.00 52 839.6
20221206121712 30 283 2.0 12.0 0.00 0.00 0.00 53 839.6
20221206120211 30 231 9.0 11.0 0.00 0.00 0.00 53 839.5
20221206114710 30 234 9.0 16.0 0.00 0.00 0.00 53 839.2
20221206113210 30 270 12.0 17.0 0.00 0.00 0.00 53 839.0
20221206110209 30 258 17.0 17.0 0.00 0.00 0.00 52 839.2